Regional Weather Roundup
Issued by NWS

Home | Current Version | Previous Version | Text Only | Print | Product List | Glossary On
Versions: 1 2 3 4 5 6 7 8 9 10 11 12 13 14 15 16 17 18 19 20 21 22 23 24 25 26 27 28 29 30 31 32 33 34 35 36 37 38 39 40 41 42 43 44 45 46 47 48 49 50
842
ASUS44 KFWD 180715
RWRTX
NORTH TEXAS HOURLY WEATHER ROUNDUP
NATIONAL WEATHER SERVICE FORT WORTH TX
100 AM CST MON DEC 18 2017

NOTE: "FAIR" INDICATES FEW OR NO CLOUDS BELOW 12,000 FEET WITH NO
SIGNIFICANT WEATHER AND/OR OBSTRUCTIONS TO VISIBILITY.

TXZ118-119-180800-
DALLAS/FORT WORTH METROPLEX

CITY           SKY/WX    TMP DP  RH WIND       PRES   REMARKS
DFW AIRPORT    CLOUDY    50  47  89 SE8       30.12R FOG
DALLAS LOVE    CLOUDY    50  47  89 S7        30.13S
FTW MEACHAM    CLOUDY    49  48  97 SE5       30.12S FOG
DAL-EXECUTIVE  CLOUDY    47  47 100 SE8       30.12S FOG
FTW-ALLIANCE   CLOUDY    47  47 100 S3        30.12F FOG
FTW-NAS-JRB    CLOUDY    49  46  90 SE6       30.13S FOG
FTW-SPINKS     CLOUDY    45  44  97 CALM      30.14S FOG
ARLINGTON      FOG       46  46 100 SE5       30.13F VSB 3/4
GRAND PRAIRIE  CLOUDY    47  47 100 CALM      30.15S VSB 1
ADDISON        CLOUDY    48  46  93 S3        30.15S
MESQUITE       CLOUDY    47  47  99 SE5       30.15S
LANCASTER      CLOUDY    47  46  96 SE5       30.15F FOG
$$

TXZ091>094-102>105-117-120-121-131>134-180800-
NORTH CENTRAL TEXAS

CITY           SKY/WX    TMP DP  RH WIND       PRES   REMARKS
SHRMAN/DENISON CLOUDY    46  45  97 SW3       30.15S FOG
GAINESVILLE    CLOUDY    46  44  95 CALM      30.15S FOG
BOWIE          LGT RAIN  44  44  99 CALM      30.12S VSB 1/4
BRIDGEPORT     FOG       46  46 100 CALM      30.14S VSB 3/4
DECATUR        FOG       46  45  98 S5        30.11S VSB<1/4
DENTON         CLOUDY    47  47 100 S3        30.13S FOG
MCKINNEY       CLOUDY    48  47  96 CALM      30.14S
BONHAM         CLOUDY    45  44  95 CALM      30.15S FOG
GREENVILLE     CLOUDY    50  50 100 CALM      30.15S FOG
ROCKWALL       CLOUDY    47  47 100 SE3       30.14S FOG
TERRELL        FOG       49  47  93 CALM      30.15S VSB 1/2
WAXAHACHIE     FOG       47  47 100 CALM      30.15S VSB 1/2
GRANBURY       FOG       48  46  95 E5        30.13S VSB 1/2
$$

TXZ083>090-098>101-113>116-127>130-139>142-154-155-180800-
WESTERN NORTH TEXAS

CITY           SKY/WX    TMP DP  RH WIND       PRES   REMARKS
WICHITA FALLS  FOG       34  33  96 CALM      30.11S VSB 1/4
WF-KICKAPOO    FOG       37  37  98 CALM      30.13F VSB 1
VERNON         CLOUDY    36  32  86 CALM      30.12S
ABILENE        CLOUDY    39  34  82 CALM      30.10S
ABILENE-DYESS  CLOUDY    37  32  82 SW3       30.10S
GRAHAM         FOG       43  32  65 CALM      30.10S VSB 1/4
BRECKENRIDGE   CLOUDY    42  35  76 CALM      30.10S
CISCO          CLOUDY    45  36  70 CALM      30.10S
EASTLAND       CLOUDY    33  31  94 CALM      30.10S
RANGER         FOG       39  39 100 N3        30.10S VSB 1
MINERAL WELLS  FOG       46  45  96 SE7       30.10F VSB 1/4
STEPHENVILLE   CLOUDY    45  44  95 S6        30.12S VSB 1/4
COMANCHE       FOG       44  44 100 E5        30.10S VSB 1/4
COLEMAN        CLOUDY    42  38  85 CALM      30.09S
$$

TXZ143>147-156>162-174-175-180800-
CENTRAL TEXAS

CITY           SKY/WX    TMP DP  RH WIND       PRES   REMARKS
WACO           FOG       48  48 100 SE3       30.13S VSB 1/2
WACO-MCGREGOR  CLOUDY    48  48 100 SE7       30.13S FOG
HILLSBORO      FOG       48  48 100 SE3       30.12F VSB 1/4
CORSICANA      FOG       48  48 100 CALM      30.14F VSB 1/2
MEXIA          FOG       48  47  97 CALM      30.12F VSB 1/4
HEARNE         FOG       49  49 100 CALM      30.15S VSB 3/4
CAMERON        FOG       49  49  98 CALM      30.14R VSB 3/4
TEMPLE         FOG       48  48 100 S6        30.12F VSB 3/4
KILLEEN        CLOUDY    46  46 100 SE6       30.09F FOG
KILLEEN-SKYLRK FOG       48  48 100 S6        30.11F VSB 1/2
FORT HOOD      FOG       47  47 100 S7        30.07F VSB 5/8
GATESVILLE     FOG       48  48 100 CALM      30.13S VSB 1/4
HAMILTON       SNOW      48  48 100 S8        30.11S VSB 1/4
LAMPASAS       FOG       47  47  99 CALM      30.09S VSB 1/4
$$

TXZ095>097-106>112-122>126-135>138-148>153-164>167-180800-
EAST TEXAS

CITY           SKY/WX    TMP DP  RH WIND       PRES   REMARKS
PARIS          CLOUDY    47  46  97 CALM      30.16R FOG
SULPHUR SPRNGS CLOUDY    50  48  93 S3        30.17S
MOUNT PLEASANT CLOUDY    47  47 100 CALM      30.17S
GILMER           N/A     47  47 100 CALM      30.16S FOG
MINEOLA        CLOUDY    50  48  93 CALM      30.15F FOG
TYLER          FOG       49  49 100 SE3       30.13S VSB 1
LONGVIEW       FOG       49  49 100 E3        30.14F VSB 3/4
MARSHALL       CLOUDY    47  46  94 CALM      30.17F VSB 1
ATHENS         FOG       45  45 100 CALM      30.13S VSB 1/4
PALESTINE      FOG       49  49 100 CALM      30.15F VSB 1/4
JACKSONVILLE   FOG       47  47 100 CALM      30.15F VSB 1/4
HENDERSON      FOG       49  49 100 CALM      30.16S VSB 1/4
CENTER         FOG       47  46  95 NW3       30.16F VSB 1/4
NACOGDOCHES    FOG       49  49 100 CALM      30.15S VSB 1/4
LUFKIN         FOG       49  49 100 CALM      30.15R VSB 1/2
$$

SUPPLEMENTAL OBSERVATIONS (NWS FORT WORTH AREA)

CITY           SKY/WX    TMP DP  RH WIND       PRES   REMARKS
DENISON DAM      N/A     46  43  87 SW3         N/A
CADDO GRASSLND   N/A     46  43  87 SW2         N/A
PAT MAYSE LAKE   N/A     46  45  93 SE5         N/A
LBJ GRASSLAND    N/A     45  43  93 SE5         N/A
POSSUM KINGDOM   N/A     46  43  87 E5          N/A
GRANBURY         N/A     46  45  93 E6          N/A
COMANCHE         N/A     43  41  93 SE5         N/A
MCGREGOR         N/A     48  46  93 S3          N/A
TEMPLE           N/A     48  46  93 S5          N/A
LAKE LIMESTONE   N/A     48  46  93 S1          N/A
ATHENS           N/A     46  45  93 S1          N/A
$$

SUPPLEMENTAL OBSERVATIONS (NWS NORMAN AREA)

CITY           SKY/WX    TMP DP  RH WIND       PRES   REMARKS
GOODLETT         N/A     37  32  83 S5        30.11S WCI  33
ODELL            N/A     32  30  94 S3        30.13R
CROWELL          N/A     36  33  89 S1        30.12S
KNOX CITY        N/A     33  28  81 W5        30.12S WCI  29
SEYMOUR          N/A     36  33  88 SE1       30.11F
MILLERS CREEK    N/A     34  30  86 W1          N/A
$$

SUPPLEMENTAL OBSERVATIONS (NWS SAN ANGELO AREA)

CITY           SKY/WX    TMP DP  RH WIND       PRES   REMARKS
WEINERT          N/A     34  28  78 S1        30.11S
HASKELL          N/A     36  30  78 SE2       30.11S
THROCKMORTON     N/A     37  35  90 W2        30.12R
STAMFORD         N/A     35  30  82 SW5       30.13R WCI  31
CLYDE            N/A     43  35  73 E7        30.11R WCI  39
HAMBY            N/A     36  30  80 W2          N/A
IVIE RESERVOIR   N/A     43  39  87 SE2         N/A
COLORADO BEND    N/A     48  46  93 SE5         N/A
$$

SUPPLEMENTAL OBSERVATIONS (NWS SHREVEPORT AREA)

CITY           SKY/WX    TMP DP  RH WIND       PRES   REMARKS
CLARKSVILLE      N/A     46  45  93 S2          N/A
TEXARKANA        N/A     46  45  93 W1          N/A
LINDEN           N/A     46  45  93 CALM        N/A
CADDO LAKE       N/A     48  46  93 CALM        N/A
GILMER           N/A     48  46  93 E1          N/A
HENDERSON        N/A     48  46  93 E1          N/A
LUFKIN           N/A     50  48  93 MISG        N/A
N SABINE NF      N/A     48  46  93 MISG        N/A
S SABINE NF      N/A     52  50  93 CALM        N/A
$$

SUPPLEMENTAL OBSERVATIONS ARE A COLLECTION OF AUTOMATED INSTRUMENTS
THAT ARE MAINTAINED BY A VARIETY OF FEDERAL AND STATE AGENCIES.
CERTAIN ELEMENTS...SUCH AS HUMIDITY VALUES AND SUSTAINED WIND
SPEEDS...MAY BE APPROXIMATED.





USA.gov is the U.S. government's official web portal to all federal, state and local government web resources and services.